Wind_Speed
13 13 11 10 9 9 8 9 8 8 7 7 7 7 7 6 6 6 6 5 5 4 4 5 5 6 6 6 7 8 8 8 7 8 8 8 8 9 9 9 9 9 9
13 12 11 10 10 9 9 9 8 8 8 8 8 8 8 7 7 7 7 7 6 6 6 7 7 7 7 8 7 8 8 9 9 9 9 9 9 9 10 10 9 9 9
13 12 12 12 11 10 9 9 9 8 7 7 8 8 8 8 8 8 8 8 7 7 8 8 8 8 8 7 7 8 9 10 10 10 9 9 10 10 11 11 11 10 10
13 12 12 13 12 11 10 10 10 9 8 8 8 9 9 9 9 9 9 9 8 8 8 9 10 10 10 9 10 10 10 11 11 10 11 11 11 11 11 12 12 11 11
15 13 13 13 13 12 11 11 11 10 9 9 9 10 11 10 10 10 10 10 10 10 10 10 11 11 11 11 11 11 11 11 12 12 12 12 12 12 12 12 12 13 13
14 14 14 14 14 14 13 11 11 10 10 10 10 10 11 11 11 11 11 11 11 11 12 12 12 12 12 12 12 13 13 13 13 13 13 13 13 13 13 13 14 14 14
14 15 15 15 15 15 14 13 12 12 11 11 11 11 12 12 12 12 12 12 13 13 14 14 13 14 13 13 13 14 14 14 15 15 14 13 14 14 14 14 15 15 15
15 16 16 16 15 15 15 14 13 13 13 13 13 13 13 13 13 13 13 13 13 14 14 14 14 14 14 14 14 15 15 16 16 16 16 15 15 15 16 16 16 16 15
16 16 16 16 16 16 16 16 15 15 15 14 14 14 14 14 15 15 15 14 14 15 15 14 15 14 14 14 15 15 16 17 17 17 17 17 17 17 17 18 17 17 16
15 16 17 18 17 17 17 17 16 15 15 15 15 15 16 16 16 16 16 15 15 15 15 15 16 16 15 15 16 16 16 17 18 19 19 19 19 19 19 19 19 18 18
16 17 18 18 18 18 18 18 17 17 17 16 16 17 17 17 17 17 16 16 16 15 15 16 16 16 17 17 17 17 18 18 19 19 20 20 20 19 20 20 19 19 19
17 18 19 19 19 19 19 18 18 18 17 17 17 18 18 18 18 18 17 17 17 17 16 16 17 17 17 17 17 18 19 19 19 20 21 21 21 20 21 21 21 20 20
19 19 20 20 20 19 19 19 19 18 18 18 19 19 19 19 19 19 18 18 18 18 18 18 18 18 18 18 18 18 19 19 20 20 21 21 22 22 21 21 21 20 20
19 20 20 21 21 20 20 20 20 20 19 19 20 19 19 19 19 19 19 19 19 18 18 19 19 18 18 19 19 19 19 19 20 20 21 21 21 21 21 21 21 21 20
20 21 21 21 21 21 21 21 21 21 21 21 21 20 19 20 20 19 19 19 19 19 20 19 19 19 19 19 20 20 20 19 20 20 20 20 21 21 21 21 21 21 21
21 22 22 23 22 22 22 22 23 23 22 21 21 20 20 21 21 21 20 20 20 20 20 19 19 19 20 20 20 20 20 20 20 21 21 22 22 22 21 22 22 22 22
21 22 23 23 23 23 23 24 24 24 23 23 22 22 21 21 21 22 21 22 22 21 21 21 21 21 21 21 20 21 21 21 21 21 22 22 22 23 23 22 23 22 22
23 23 24 24 23 23 23 24 24 24 23 23 23 22 22 22 22 22 23 23 23 23 23 22 22 22 21 21 21 22 22 22 22 22 22 22 22 22 23 23 23 23 23
23 24 25 25 24 24 25 25 24 24 24 23 23 23 23 24 24 24 24 24 24 24 24 23 23 22 22 22 22 23 23 22 23 22 23 22 22 22 22 23 22 22 23
25 26 26 26 24 24 25 24 24 24 24 24 24 24 24 24 24 25 25 24 24 24 24 23 23 23 23 23 23 22 22 22 22 22 22 22 22 22 22 22 22 23 23
27 28 28 26 25 25 25 25 25 25 25 24 24 24 25 25 25 25 24 24 24 24 23 23 23 23 23 24 23 23 23 23 23 23 22 22 22 22 22 22 22 23 23
28 28 28 28 27 26 26 25 25 25 25 25 25 25 25 25 25 25 25 25 25 24 24 24 24 24 24 24 24 24 24 24 23 23 22 22 22 22 22 22 22 23 23
29 29 28 29 28 27 27 26 25 25 25 25 25 25 25 25 26 26 25 26 25 25 25 25 24 24 25 25 25 24 25 24 24 23 22 22 23 23 23 23 23 23 23
29 30 30 29 28 26 26 26 25 25 24 25 25 26 26 26 26 26 25 25 25 26 26 26 26 25 26 26 25 24 24 24 23 23 23 23 23 23 23 23 23 23 23
28 29 30 29 28 27 26 26 25 25 25 26 26 26 27 27 26 26 26 26 25 25 25 25 25 25 25 26 25 24 24 23 22 23 23 23 23 23 24 24 24 24 24
28 28 28 27 26 26 25 25 25 25 25 25 26 26 26 26 25 25 25 25 25 24 24 24 24 24 24 24 24 24 23 23 23 23 24 24 24 24 24 25 24 24 24
Wind_Direction
9 9 7 3 1 358 354 355 352 348 347 346 351 349 341 334 325 317 308 302 296 295 289 290 289 288 287 284 281 277 278 279 282 284 283 284 278 274 276 279 280 280 278
4 2 2 355 352 348 348 345 344 339 339 340 339 339 336 332 324 319 313 305 301 295 291 290 289 285 282 282 283 281 278 275 279 280 281 282 280 275 276 277 278 278 276
354 353 353 351 344 340 339 338 336 329 327 330 332 331 329 325 322 319 311 306 302 298 294 289 290 288 286 285 282 284 284 282 282 281 279 278 281 278 280 281 281 282 281
348 348 347 346 339 335 333 333 332 325 319 318 322 320 320 319 317 316 311 308 300 296 297 294 291 289 291 289 286 284 285 283 283 282 279 276 280 278 281 283 284 285 287
344 348 348 345 339 334 332 329 329 325 319 317 315 314 314 311 310 309 306 304 301 301 299 294 293 291 292 293 290 286 287 284 282 283 281 277 278 281 280 280 281 285 286
340 343 341 338 336 333 332 328 325 323 319 317 314 311 310 307 304 302 302 301 297 296 297 294 289 287 288 289 290 286 286 288 285 283 279 277 276 281 282 279 279 282 284
335 336 336 334 331 328 326 323 319 318 314 310 307 306 304 302 301 299 298 297 296 295 293 291 288 285 284 285 287 287 286 291 288 283 279 279 278 278 279 282 281 282 282
325 326 327 326 326 325 323 319 316 314 311 307 303 301 302 300 299 299 297 297 296 295 294 292 290 285 281 282 283 284 285 288 288 284 280 281 280 279 279 282 284 283 280
320 321 320 321 320 319 318 316 313 309 305 303 300 295 296 298 299 297 295 295 295 294 292 290 287 287 283 282 283 283 284 285 285 284 282 280 279 280 280 281 282 282 278
314 315 315 316 316 316 316 314 311 307 303 301 300 297 294 295 297 297 294 293 295 293 290 287 286 287 285 284 285 285 284 285 284 284 283 281 280 280 280 281 281 280 278
308 311 311 312 314 314 313 313 311 308 304 298 296 294 291 292 294 295 295 293 292 290 288 287 286 286 284 282 282 283 283 283 283 283 283 282 281 280 280 279 279 278 278
305 306 308 310 311 312 312 310 308 306 304 300 297 294 291 290 291 292 293 291 291 292 289 287 285 285 284 284 281 281 282 283 282 283 284 284 283 282 281 280 279 278 276
302 304 306 308 308 309 310 309 308 306 303 301 300 297 292 291 291 292 293 292 291 291 292 290 287 286 284 284 283 283 284 284 283 282 283 284 283 281 281 281 278 277 277
299 302 303 304 304 305 306 307 306 304 302 300 300 298 294 292 292 292 293 293 292 291 291 290 288 289 287 284 282 282 282 282 283 283 284 284 284 281 280 280 278 277 276
295 297 299 302 302 302 302 302 302 302 301 299 298 296 292 291 291 291 291 291 292 291 290 289 288 288 289 288 285 282 281 281 282 282 282 282 283 281 279 278 278 278 274
292 294 297 299 300 300 301 301 301 300 299 298 297 294 292 291 291 289 288 288 288 288 288 289 289 288 287 287 287 286 284 283 284 283 282 283 283 281 279 278 278 276 274
291 295 294 294 297 298 300 301 300 300 298 298 297 295 293 293 290 288 286 286 288 287 288 289 289 288 288 287 286 285 286 286 285 284 284 284 283 281 281 280 280 278 276
289 292 292 290 292 294 297 299 299 298 297 297 296 295 295 294 293 290 288 288 288 287 287 287 288 288 288 287 285 285 285 285 286 285 285 286 285 282 280 281 280 278 277
289 291 292 290 291 292 294 296 296 294 294 295 295 295 293 293 293 293 291 290 289 288 285 285 286 286 285 285 286 286 285 285 286 287 287 287 287 286 283 281 280 278 276
287 291 292 288 289 291 293 295 295 294 293 292 292 292 292 293 294 293 291 290 290 289 286 285 284 284 284 284 284 284 284 285 286 288 289 286 284 284 283 281 280 278 276
286 288 290 288 288 289 291 293 294 293 292 292 291 291 292 293 292 291 290 289 289 288 287 286 285 284 284 284 284 282 282 284 286 288 289 288 285 282 282 281 280 278 276
282 286 287 287 288 289 291 291 291 291 291 291 291 292 292 291 290 290 290 290 288 287 286 286 285 283 283 284 284 283 282 282 284 285 285 285 285 285 283 281 280 279 277
280 283 285 288 289 291 291 289 288 290 290 289 289 290 290 290 290 290 290 290 287 286 286 286 284 283 282 282 283 283 283 284 284 285 286 285 285 286 284 282 281 281 279
279 282 284 287 288 287 287 287 288 289 289 289 289 289 289 290 289 288 288 288 288 286 284 284 284 283 281 280 280 282 282 282 283 283 284 284 284 285 284 282 282 282 281
277 281 284 286 287 286 287 289 289 290 289 288 288 288 287 288 289 287 286 286 287 288 287 284 284 283 281 279 277 278 281 280 281 282 283 284 284 284 282 281 282 282 282
278 281 283 285 285 286 286 287 289 291 290 289 288 289 290 289 290 290 291 290 289 288 287 285 284 282 281 280 277 279 281 281 280 281 282 282 283 282 281 282 283 282 282
Height
5907 5905 5903 5902 5900 5898 5897 5895 5894 5893 5892 5891 5890 5889 5888 5887 5887 5886 5885 5884 5884 5883 5883 5882 5882 5882 5881 5881 5880 5880 5879 5879 5878 5878 5877 5876 5875 5874 5873 5873 5872 5872 5871
5907 5905 5903 5900 5898 5897 5895 5895 5893 5892 5891 5890 5889 5888 5887 5886 5885 5884 5883 5882 5881 5881 5881 5880 5879 5879 5879 5878 5878 5877 5877 5876 5875 5875 5874 5873 5873 5871 5871 5871 5870 5869 5869
5906 5904 5902 5900 5898 5896 5895 5894 5892 5890 5889 5888 5887 5886 5885 5884 5883 5882 5881 5880 5879 5879 5878 5877 5877 5876 5876 5875 5875 5874 5874 5873 5872 5871 5871 5871 5870 5869 5868 5867 5867 5866 5865
5904 5903 5901 5898 5896 5895 5893 5891 5890 5888 5887 5886 5885 5884 5883 5882 5881 5880 5878 5877 5877 5876 5875 5874 5874 5873 5872 5872 5872 5871 5870 5870 5869 5868 5868 5867 5867 5866 5865 5864 5863 5862 5862
5903 5901 5899 5897 5895 5893 5891 5889 5888 5886 5885 5884 5883 5882 5880 5879 5878 5877 5876 5875 5874 5873 5872 5871 5871 5870 5869 5868 5868 5867 5867 5866 5865 5864 5864 5863 5862 5862 5861 5861 5860 5859 5858
5901 5899 5897 5895 5893 5891 5889 5887 5886 5884 5882 5881 5880 5879 5877 5876 5875 5874 5873 5872 5871 5870 5869 5868 5867 5866 5865 5864 5864 5863 5863 5862 5861 5860 5859 5858 5858 5857 5857 5856 5855 5855 5854
5899 5897 5895 5893 5891 5888 5886 5885 5883 5881 5880 5878 5876 5875 5874 5873 5872 5871 5869 5868 5867 5866 5865 5864 5863 5862 5861 5860 5860 5859 5859 5858 5856 5855 5854 5854 5853 5853 5852 5852 5851 5850 5849
5896 5894 5892 5890 5888 5886 5884 5882 5880 5878 5876 5875 5873 5872 5871 5870 5868 5867 5865 5864 5863 5862 5861 5860 5859 5858 5857 5856 5855 5855 5854 5853 5852 5851 5850 5849 5849 5848 5847 5847 5846 5845 5844
5893 5891 5889 5887 5885 5883 5880 5878 5876 5875 5873 5871 5869 5868 5867 5866 5865 5863 5862 5860 5859 5858 5857 5855 5854 5854 5853 5852 5851 5850 5849 5848 5847 5846 5845 5845 5844 5843 5842 5841 5841 5840 5839
5890 5888 5886 5883 5881 5879 5876 5874 5872 5870 5869 5867 5865 5864 5863 5862 5860 5859 5857 5856 5855 5853 5852 5851 5850 5849 5848 5847 5846 5845 5844 5843 5842 5841 5840 5839 5838 5838 5837 5836 5835 5834 5834
5886 5885 5883 5880 5878 5875 5873 5870 5868 5866 5865 5863 5861 5860 5858 5857 5856 5854 5853 5851 5850 5849 5847 5846 5845 5844 5842 5841 5840 5839 5838 5837 5836 5835 5834 5833 5832 5832 5831 5830 5829 5828 5828
5882 5880 5878 5876 5873 5871 5869 5866 5864 5862 5860 5858 5857 5855 5853 5852 5851 5849 5848 5846 5845 5844 5842 5840 5839 5838 5837 5836 5835 5834 5833 5831 5830 5829 5828 5827 5826 5826 5825 5824 5823 5822 5821
5877 5875 5872 5870 5868 5866 5864 5861 5859 5857 5855 5853 5851 5849 5848 5846 5845 5843 5842 5841 5839 5838 5836 5834 5833 5832 5831 5830 5829 5828 5827 5825 5824 5823 5821 5820 5819 5819 5818 5817 5817 5816 5815
5872 5870 5868 5865 5863 5861 5859 5856 5854 5852 5850 5848 5846 5844 5842 5840 5839 5838 5836 5835 5833 5832 5830 5829 5828 5826 5824 5823 5822 5821 5820 5819 5817 5816 5815 5814 5813 5812 5811 5811 5810 5810 5809
5867 5865 5863 5860 5858 5856 5854 5852 5849 5847 5845 5843 5841 5839 5837 5835 5833 5832 5830 5829 5827 5826 5824 5823 5821 5820 5818 5817 5815 5814 5813 5812 5811 5809 5808 5807 5806 5805 5804 5804 5803 5802 5802
5861 5859 5857 5855 5853 5851 5849 5846 5843 5841 5839 5837 5835 5833 5831 5829 5827 5826 5824 5822 5821 5819 5818 5816 5814 5813 5811 5810 5809 5807 5806 5805 5804 5802 5801 5800 5798 5797 5797 5796 5795 5795 5795
5855 5853 5851 5849 5847 5845 5843 5840 5837 5835 5832 5830 5828 5826 5825 5823 5821 5820 5818 5816 5814 5813 5811 5809 5808 5806 5805 5803 5802 5801 5799 5797 5796 5794 5793 5792 5791 5790 5790 5790 5789 5789 5788
5849 5847 5845 5843 5841 5839 5836 5834 5831 5829 5827 5824 5822 5820 5818 5816 5815 5813 5811 5810 5808 5806 5804 5802 5801 5799 5798 5797 5795 5794 5792 5790 5789 5787 5786 5784 5783 5782 5782 5782 5782 5782 5781
5842 5840 5838 5836 5834 5832 5830 5827 5825 5823 5821 5819 5817 5814 5812 5810 5808 5806 5804 5802 5800 5799 5797 5795 5794 5792 5791 5789 5788 5786 5785 5783 5781 5780 5778 5777 5776 5775 5774 5774 5775 5774 5774
5835 5833 5831 5829 5827 5825 5823 5820 5818 5816 5814 5812 5810 5808 5806 5804 5802 5799 5797 5795 5793 5791 5789 5788 5786 5785 5784 5782 5781 5779 5778 5776 5775 5773 5771 5770 5769 5768 5767 5767 5767 5767 5767
5828 5826 5824 5822 5820 5818 5816 5813 5811 5809 5807 5805 5803 5801 5799 5797 5794 5792 5790 5788 5786 5784 5782 5780 5779 5778 5777 5775 5774 5773 5771 5770 5768 5766 5765 5763 5762 5761 5761 5760 5760 5759 5759
5821 5819 5817 5815 5813 5810 5808 5806 5804 5802 5800 5798 5796 5794 5792 5790 5787 5785 5783 5781 5778 5777 5775 5773 5772 5770 5769 5768 5767 5765 5764 5763 5761 5760 5758 5757 5756 5755 5754 5753 5753 5752 5751
5812 5811 5810 5808 5806 5803 5801 5799 5797 5795 5793 5791 5789 5787 5784 5782 5780 5778 5775 5773 5771 5769 5768 5766 5765 5763 5762 5761 5759 5758 5757 5756 5755 5754 5752 5751 5750 5749 5747 5747 5745 5744 5744
5804 5803 5802 5800 5799 5796 5794 5792 5790 5788 5786 5784 5781 5779 5777 5775 5772 5770 5768 5766 5763 5762 5760 5758 5757 5756 5754 5753 5752 5751 5749 5749 5748 5746 5745 5744 5743 5742 5741 5740 5738 5737 5736
5796 5795 5794 5793 5791 5789 5787 5785 5783 5781 5779 5777 5774 5771 5769 5767 5764 5762 5760 5758 5756 5754 5752 5751 5749 5748 5747 5746 5744 5743 5742 5741 5741 5739 5738 5737 5736 5735 5734 5732 5731 5730 5729
5788 5787 5785 5784 5782 5781 5779 5778 5776 5774 5772 5769 5767 5764 5762 5760 5757 5754 5752 5750 5748 5746 5744 5742 5741 5740 5739 5738 5737 5736 5735 5734 5733 5732 5731 5730 5729 5728 5727 5726 5724 5723 5722